Date String (YYYY-MM-DD hh:mm:ss) UTC,Instrument flags,Ambient pressure (hPa),Sample flow (lpm),Bypass flow (lpm),Sample temperature (°C),Ambient temperature (°C),ASC tube jacket temperature (°C),LED temperature (°C),Box temperature (°C),Sample RH (%),Span deviation,Mass concentration (μg/m³),Mass concentration (μg/m³),Mass concentration (μg/m³)
DateTimeUTC,F1_M11,P_M11,Q1_M11,Q2_M11,T1_M11,T2_M11,T3_M11,T4_M11,T5_M11,U1_M11,ZSPAN_M11,X0_M11,X2_M11,X1_M11
2022-08-15 05:00:00,,0829.9,5.02,0.00,31.1,28.0,00.0,39.1,31.7,35.0,0000.0,0008.17,0004.10,0003.66
2022-08-15 05:01:00,,0829.8,5.01,0.00,31.2,28.1,00.0,39.1,31.8,35.3,0000.0,0008.07,0004.08,0003.66
2022-08-15 05:02:00,,0829.8,4.99,0.00,31.4,28.2,00.0,39.2,32.0,34.1,0000.0,0007.72,0004.06,0003.64
2022-08-15 05:03:00,,0829.8,4.99,0.00,31.5,28.3,00.0,39.2,32.0,33.3,0000.0,0007.53,0004.02,0003.62
2022-08-15 05:04:00,,0829.8,5.00,0.00,31.5,28.4,00.0,39.3,32.0,33.3,0000.0,0006.92,0004.00,0003.61
2022-08-15 05:05:00,,0829.8,5.01,0.00,31.5,28.5,00.0,39.3,32.0,33.3,0000.0,0007.02,0004.00,0003.60
2022-08-15 05:06:00,,0829.7,4.99,0.00,31.5,28.6,00.0,39.4,32.0,33.2,0000.0,0006.70,0004.01,0003.60
2022-08-15 05:07:00,,0829.7,5.00,0.00,31.5,28.7,00.0,39.4,32.0,33.1,0000.0,0006.69,0004.01,0003.58
2022-08-15 05:08:00,,0829.6,5.00,0.00,31.4,28.7,00.0,39.5,32.0,33.5,0000.0,0006.70,0004.02,0003.59
2022-08-15 05:09:00,,0829.8,5.01,0.00,31.4,28.8,00.0,39.5,32.1,33.3,0000.0,0006.90,0004.07,0003.60
2022-08-15 05:10:00,,0829.8,4.98,0.00,31.4,28.8,00.0,39.5,32.1,33.2,0000.0,0006.89,0004.07,0003.60
2022-08-15 05:11:00,,0829.8,5.00,0.00,31.3,28.7,00.0,39.6,32.0,33.3,0000.0,0006.77,0004.06,0003.59
2022-08-15 05:12:00,,0829.6,4.99,0.00,31.3,28.1,00.0,39.5,31.9,33.4,0000.0,0006.70,0004.04,0003.59
2022-08-15 05:13:00,,0829.6,5.00,0.00,31.2,27.7,00.0,39.5,31.8,33.6,0000.0,0006.71,0004.05,0003.60
2022-08-15 05:14:00,,0829.7,5.01,0.00,31.1,27.7,00.0,39.5,31.7,34.0,0000.0,0006.79,0004.06,0003.60
2022-08-15 05:15:00,,0829.7,5.00,0.00,31.0,27.7,00.0,39.4,31.7,34.6,0000.0,0006.96,0004.06,0003.61
2022-08-15 05:16:00,,0829.6,5.00,0.00,30.9,27.8,00.0,39.4,31.7,34.9,0000.0,0007.34,0004.05,0003.62
2022-08-15 05:17:00,,0829.7,5.00,0.00,31.0,28.0,00.0,39.4,31.8,33.9,0000.0,0007.39,0004.03,0003.61
2022-08-15 05:18:00,,0829.6,4.99,0.00,31.0,28.1,00.0,39.4,31.9,33.6,0000.0,0007.39,0004.02,0003.61
2022-08-15 05:19:00,,0829.6,5.00,0.00,31.0,28.2,00.0,39.4,31.9,33.5,0000.0,0007.35,0004.00,0003.61
2022-08-15 05:20:00,,0829.6,5.00,0.00,30.9,28.4,00.0,39.4,31.9,33.7,0000.0,0007.09,0003.94,0003.60
2022-08-15 05:21:00,,0829.5,5.00,0.00,30.9,28.5,00.0,39.4,31.9,34.2,0000.0,0007.03,0003.93,0003.60
2022-08-15 05:22:00,,0829.5,5.00,0.00,30.9,28.6,00.0,39.4,31.9,34.4,0000.0,0007.27,0003.98,0003.61
2022-08-15 05:23:00,,0829.5,5.00,0.00,30.9,28.6,00.0,39.4,32.0,34.4,0000.0,0007.33,0004.01,0003.63
2022-08-15 05:24:00,,0829.5,5.00,0.00,30.9,28.7,00.0,39.4,32.0,34.6,0000.0,0007.61,0004.04,0003.64
2022-08-15 05:25:00,,0829.5,5.01,0.00,30.9,28.8,00.0,39.4,32.0,35.0,0000.0,0007.96,0004.05,0003.66
2022-08-15 05:26:00,,0829.5,4.99,0.00,31.0,28.8,00.0,39.4,32.1,34.7,0000.0,0008.00,0004.08,0003.67
2022-08-15 05:27:00,,0829.5,4.99,0.00,31.0,28.4,00.0,39.3,31.9,34.5,0000.0,0007.70,0004.11,0003.69
2022-08-15 05:28:00,,0829.6,5.00,0.00,31.0,27.8,00.0,39.3,31.8,34.7,0000.0,0007.59,0004.14,0003.71
2022-08-15 05:29:00,,0829.6,5.00,0.00,30.9,27.6,00.0,39.3,31.7,35.2,0000.0,0007.60,0004.17,0003.74
2022-08-15 05:30:00,,0829.6,5.00,0.00,31.0,27.6,00.0,39.3,31.7,35.1,0000.0,0007.64,0004.18,0003.75
2022-08-15 05:31:00,,0829.6,5.00,0.00,31.3,27.7,00.0,39.3,31.9,34.5,0000.0,0007.76,0004.22,0003.76
2022-08-15 05:32:00,,0829.6,5.01,0.00,31.4,27.9,00.0,39.3,32.0,33.8,0000.0,0007.83,0004.26,0003.77
2022-08-15 05:33:00,,0829.5,4.99,0.00,31.5,28.0,00.0,39.3,32.0,33.3,0000.0,0007.78,0004.25,0003.77
2022-08-15 05:34:00,,0829.5,5.01,0.00,31.5,28.1,00.0,39.3,32.0,33.3,0000.0,0007.69,0004.22,0003.76
2022-08-15 05:35:00,,0829.6,5.00,0.00,31.5,28.3,00.0,39.4,32.0,33.6,0000.0,0007.58,0004.21,0003.75
2022-08-15 05:36:00,,0829.5,5.01,0.00,31.5,28.4,00.0,39.4,32.0,33.6,0000.0,0007.05,0004.19,0003.75
2022-08-15 05:37:00,,0829.4,4.99,0.00,31.4,28.5,00.0,39.5,32.0,33.4,0000.0,0007.01,0004.18,0003.74
2022-08-15 05:38:00,,0829.5,5.01,0.00,31.4,28.6,00.0,39.5,32.0,33.7,0000.0,0007.04,0004.19,0003.73
2022-08-15 05:39:00,,0829.5,4.99,0.00,31.4,28.7,00.0,39.5,32.1,34.1,0000.0,0007.18,0004.21,0003.73
2022-08-15 05:40:00,,0829.4,5.00,0.00,31.3,28.7,00.0,39.6,32.1,34.1,0000.0,0007.21,0004.21,0003.73
2022-08-15 05:41:00,,0829.4,4.99,0.00,31.3,28.8,00.0,39.6,32.1,34.2,0000.0,0007.29,0004.19,0003.73
2022-08-15 05:42:00,,0829.3,5.01,0.00,31.3,28.8,00.0,39.6,32.1,34.1,0000.0,0007.14,0004.18,0003.73
2022-08-15 05:43:00,,0829.3,4.99,0.00,31.2,28.3,00.0,39.5,31.9,34.4,0000.0,0007.19,0004.18,0003.73
2022-08-15 05:44:00,,0829.3,5.01,0.00,31.1,27.5,00.0,39.5,31.7,34.4,0000.0,0007.24,0004.18,0003.74
2022-08-15 05:45:00,,0829.3,5.01,0.00,31.0,27.2,00.0,39.5,31.6,34.4,0000.0,0007.30,0004.19,0003.75
2022-08-15 05:46:00,,0829.3,5.00,0.00,30.8,27.1,00.0,39.4,31.5,34.6,0000.0,0007.37,0004.22,0003.76
2022-08-15 05:47:00,,0829.4,5.01,0.00,30.7,27.2,00.0,39.4,31.5,34.6,0000.0,0007.33,0004.22,0003.76
2022-08-15 05:48:00,,0829.3,4.99,0.00,30.6,27.4,00.0,39.3,31.5,34.4,0000.0,0007.22,0004.20,0003.77
2022-08-15 05:49:00,,0829.3,5.00,0.00,30.6,27.6,00.0,39.3,31.6,34.3,0000.0,0007.31,0004.22,0003.76
2022-08-15 05:50:00,,0829.4,5.00,0.00,30.6,27.7,00.0,39.3,31.6,34.6,0000.0,0007.28,0004.21,0003.75
2022-08-15 05:51:00,,0829.4,5.00,0.00,30.5,27.9,00.0,39.2,31.6,34.8,0000.0,0007.23,0004.20,0003.74
2022-08-15 05:52:00,,0829.2,5.00,0.00,30.5,28.1,00.0,39.2,31.7,35.1,0000.0,0007.13,0004.22,0003.75
2022-08-15 05:53:00,,0829.2,5.00,0.00,30.6,28.2,00.0,39.2,31.8,35.0,0000.0,0007.20,0004.22,0003.75
2022-08-15 05:54:00,,0829.3,4.99,0.00,30.8,28.3,00.0,39.2,31.9,34.6,0000.0,0007.33,0004.26,0003.76
2022-08-15 05:55:00,,0829.2,5.01,0.00,31.0,28.4,00.0,39.2,32.0,34.6,0000.0,0007.36,0004.27,0003.75
2022-08-15 05:56:00,,0829.3,5.00,0.00,31.0,28.5,00.0,39.2,32.0,34.2,0000.0,0007.37,0004.26,0003.74
2022-08-15 05:57:00,,0829.2,5.00,0.00,31.0,28.6,00.0,39.2,32.0,35.5,0000.0,0007.30,0004.23,0003.73
2022-08-15 05:58:00,,0829.3,5.00,0.00,31.2,28.7,00.0,39.2,32.1,36.0,0000.0,0007.13,0004.22,0003.73
2022-08-15 05:59:00,,0829.2,5.00,0.00,31.5,28.7,00.0,39.3,32.2,34.2,0000.0,0007.16,0004.22,0003.72
